Погода в Дубровке

Россия / Кемеровская область (Кузбасс)     55°55′25″N   85°21′14″E
темп.,
°C
ветер,
м/с
пор.,
м/с
влажн.,
%
обл.,
%
осадки,
мм/ч
давл.,
гПа
погр.,
м
27 ноября, сб
сб2701:00−18ю4129689 0.1 1035289
04:00−17ю41495100 0.0 1034341
07:00−13ююз51492100 0.1 1034655
10:00−12ююз61390100 0.2 1033818
13:00−10ююз61489100 0.4 1032792
16:00−9ююз61492100 0.3 1031877
19:00−8ююз71593100 1.2 1029944
22:00−7ююз71594100 1.3 10261069
28 ноября, вс
вс2801:00−6юз71594100 3.7 10241107
04:00−6юз71494100 3.0 1024910
07:00−6зюз61394100 4.0 1024789
10:00−6зюз51393100 0.5 1027642
13:00−6зюз51293100 0.8 1028564
16:00−6зюз51194100 0.3 1029704
19:00−6юз51194100 0.6 1031611
22:00−6юз51195100 0.3 1033706
29 ноября, пн
пн2901:00−6юз4995100 0.6 1034517
04:00−9юз4996100 0.1 1035291
07:00−10ююз31096100 0.2 1035317
10:00−10ююз4109696 0.1 1035288
13:00−9ююз41194100 0.1 1034326
16:00−9ююз41192100 0.0 1032351
19:00−9ююз41290100 0.0 1032327
22:00−9ююз41289100 0.0 1030333
30 ноября, вт
вт3001:00−9ююз41385100 0.0 1029349
04:00−8ююз4148598 0.0 1028376
07:00−9ююз4148585 0.0 1026360
10:00−9ююз41485100 0.0 1027383
13:00−7ююз5138384 0.0 1026471
16:00−7юз4138375 0.0 1026432
19:00−8юз4128499 0.0 1027343
22:00−7юз41283100 0.0 1027371
1 декабря, ср
ср101:00−8юз41186100 0.0 1028300
04:00−8юз3990100 0.1 1029276
07:00−9ююз3790100 0.1 1030216
10:00−9ю3787100 0.0 1030210
13:00−10ю3985100 0.0 1030205
16:00−9ю31085100 0.0 1028229
19:00−9ю41284100 0.0 1026252
22:00−8ююз41480100 0.0 1025282